This demonstration page uses our WeatherBlox Daily Observations layout. Learn more.

Left ArrowRight Arrow

41.55636, -103.73856

Hourly Observations for May 29, 2019

Temp ( °F °C ) Dew Point ( °F °C ) Humidity (%) Winds ( mph kmh ) Pressure ( in mb ) Visibility ( mi km ) Precip ( " mm )
6:58 pm 18:58 Mostly Clear with Rain 43 6 42 5.3 95 95 NNE 21 33 29.84 1011 8 13 0.10 2.54
7:58 pm 19:58 Mostly Clear with Rain 42 5.7 41 5.1 96 96 NNE 23 37 29.88 1012 3 5 0.10 2.54
8:58 pm 20:58 Mostly Clear with Rain 41 5 40 4.2 95 95 NNE 21 33 29.93 1014 9 14 0.09 2.29
9:58 pm 21:58 Mostly Clear with Light Rain 41 4.8 39 4.1 95 95 N 14 22 29.97 1015 1 1 0.05 1.27
10:58 pm 22:58 Mostly Clear with Light Rain 40 4.6 39 3.9 95 95 N 14 22 29.99 1016 1 2 0.05 1.27
11:58 pm 23:58 Mostly Clear with Light Rain 40 4.6 39 4 96 96 N 12 19 30.00 1016 1 1 0.03 0.76
12:58 am 00:58 Mostly Clear with Light Rain 40 4.4 39 3.8 96 96 N 10 17 30.02 1017 3 4 0.02 0.51
1:58 am 01:58 Mostly Clear with Drizzle 40 4.3 39 3.8 97 97 N 10 17 30.02 1017 10 16 0.01 0.25
2:58 am 02:58 Mostly Clear with Light Rain 40 4.4 39 3.8 96 96 NNW 9 15 30.02 1017 5 8 0.00 0.00
3:58 am 03:58 Mostly Clear with Mist and Fog 40 4.5 39 3.8 95 95 NNW 10 17 30.00 1016 6 10 0.00 0.00
4:58 am 04:58 undefined 40 4.3 38 3.6 95 95 NW 10 17 30.01 1016 8 13 0.00 0.00
5:58 am 05:58 Partly Cloudy with Mist and Fog 40 4.4 39 3.7 95 95 NW 18 30 30.02 1017 5 8 0.00 0.00
6:58 am 06:58 undefined 40 4.2 38 3.3 94 94 NW 17 28 30.02 1017 7 11 0.00 0.00
7:58 am 07:58 undefined 41 5.2 39 3.7 90 90 NW 21 33 30.04 1017 10 16 0.00 0.00
8:58 am 08:58 undefined 44 6.8 40 4.6 86 86 NNW 18 30 30.03 1017 10 16 0.00 0.00
9:58 am 09:58 undefined 46 7.7 41 5.2 84 84 N 14 22 30.04 1017 10 16 0.00 0.00
10:58 am 10:58 undefined 50 10.1 42 5.4 73 73 N 14 22 30.03 1017 10 16 0.00 0.00
11:58 am 11:58 undefined 51 10.5 39 3.7 63 63 NNE 13 20 30.02 1017 10 16 0.00 0.00
12:58 pm 12:58 undefined 53 11.6 37 2.9 55 55 NNE 14 22 30.00 1016 10 16 0.00 0.00
1:58 pm 13:58 undefined 53 11.5 38 3.5 58 58 NNE 10 17 30.01 1016 10 16 0.00 0.00
2:58 pm 14:58 undefined 56 13.4 34 1.3 44 44 NNE 8 13 29.98 1015 10 16 0.00 0.00
3:58 pm 15:58 undefined 56 13.5 36 2 46 46 N 10 17 29.98 1015 10 16 0.00 0.00

Powered by AerisWeather